Time,TemperatureF,DewpointF,PressureIn,WindDirection,WindDirectionDegrees,WindSpeedMPH,WindSpeedGustMPH,Humidity,HourlyPrecipIn,Conditions,Clouds,dailyrainin,SoftwareType,DateUTC
2013-01-20 00:00:00,42.9,34.8,29.67,WSW,257,7.0,9.0,73,0.00,,,0.00,Wunderground v.1.15,2013-01-20 05:00:00,
2013-01-20 00:10:00,42.7,34.6,29.66,WSW,238,7.0,7.0,73,0.00,,,0.00,Wunderground v.1.15,2013-01-20 05:10:00,
2013-01-20 00:20:00,42.5,34.8,29.66,SW,230,7.0,7.0,74,0.00,,,0.00,Wunderground v.1.15,2013-01-20 05:20:00,
2013-01-20 00:25:00,42.4,34.7,29.65,WSW,247,7.0,7.0,74,0.00,,,0.00,Wunderground v.1.15,2013-01-20 05:25:00,
2013-01-20 00:35:00,42.3,34.6,29.66,SW,214,7.0,8.0,74,0.00,,,0.00,Wunderground v.1.15,2013-01-20 05:35:00,
2013-01-20 00:40:00,42.2,34.5,29.66,WSW,246,8.0,14.0,74,0.00,,,0.00,Wunderground v.1.15,2013-01-20 05:40:00,
2013-01-20 00:50:00,42.2,34.5,29.66,SSW,208,8.0,8.0,74,0.00,,,0.00,Wunderground v.1.15,2013-01-20 05:50:00,
2013-01-20 00:55:00,42.2,34.2,29.66,WSW,238,8.0,11.0,73,0.00,,,0.00,Wunderground v.1.15,2013-01-20 05:55:00,
2013-01-20 01:01:00,42.2,34.2,29.66,SW,224,8.0,8.0,73,0.00,,,0.00,Wunderground v.1.15,2013-01-20 06:01:00,
2013-01-20 01:10:00,42.1,34.1,29.65,West,276,7.0,7.0,73,0.00,,,0.00,Wunderground v.1.15,2013-01-20 06:10:00,
2013-01-20 01:15:00,42.1,33.7,29.65,WSW,250,8.0,8.0,72,0.00,,,0.00,Wunderground v.1.15,2013-01-20 06:15:00,
2013-01-20 01:25:00,42.0,33.3,29.65,SW,222,8.0,8.0,71,0.00,,,0.00,Wunderground v.1.15,2013-01-20 06:25:00,
2013-01-20 01:35:00,42.1,32.3,29.66,WSW,253,10.0,16.0,68,0.00,,,0.00,Wunderground v.1.15,2013-01-20 06:35:00,
2013-01-20 01:45:00,42.2,32.4,29.66,SW,228,11.0,14.0,68,0.00,,,0.00,Wunderground v.1.15,2013-01-20 06:45:00,
2013-01-20 01:50:00,42.0,32.2,29.66,SW,230,9.0,14.0,68,0.00,,,0.00,Wunderground v.1.15,2013-01-20 06:50:00,
2013-01-20 02:00:00,42.0,31.8,29.67,SSW,210,9.0,9.0,67,0.00,,,0.00,Wunderground v.1.15,2013-01-20 07:00:00,
2013-01-20 02:05:00,41.9,29.8,29.67,West,271,9.0,10.0,62,0.00,,,0.00,Wunderground v.1.15,2013-01-20 07:05:00,
2013-01-20 02:15:00,41.5,25.2,29.68,South,185,14.0,14.0,52,0.00,,,0.00,Wunderground v.1.15,2013-01-20 07:15:00,
2013-01-20 02:20:00,41.4,25.1,29.68,WSW,251,14.0,16.0,52,0.00,,,0.00,Wunderground v.1.15,2013-01-20 07:20:00,
2013-01-20 02:30:00,41.1,25.7,29.69,West,265,11.0,11.0,54,0.00,,,0.00,Wunderground v.1.15,2013-01-20 07:30:00,
2013-01-20 02:35:00,41.0,26.1,29.69,SSW,211,10.0,11.0,55,0.00,,,0.00,Wunderground v.1.15,2013-01-20 07:35:00,
2013-01-20 02:45:00,40.9,26.0,29.70,WSW,246,11.0,11.0,55,0.00,,,0.00,Wunderground v.1.15,2013-01-20 07:45:00,
2013-01-20 02:55:00,40.5,26.0,29.72,West,271,12.0,14.0,56,0.00,,,0.00,Wunderground v.1.15,2013-01-20 07:55:00,
2013-01-20 03:01:00,39.9,22.7,29.73,WSW,245,13.0,14.0,50,0.00,,,0.00,Wunderground v.1.15,2013-01-20 08:01:00,
2013-01-20 03:10:00,38.4,19.4,29.75,WNW,287,13.0,13.0,46,0.00,,,0.00,Wunderground v.1.15,2013-01-20 08:10:00,
2013-01-20 03:15:00,37.9,19.4,29.76,West,268,12.0,18.0,47,0.00,,,0.00,Wunderground v.1.15,2013-01-20 08:15:00,
2013-01-20 03:25:00,36.7,19.3,29.77,West,269,11.0,12.0,49,0.00,,,0.00,Wunderground v.1.15,2013-01-20 08:25:00,
2013-01-20 03:30:00,35.8,18.5,29.78,WSW,255,11.0,11.0,49,0.00,,,0.00,Wunderground v.1.15,2013-01-20 08:30:00,
2013-01-20 03:40:00,34.0,17.7,29.80,WNW,286,12.0,12.0,51,0.00,,,0.00,Wunderground v.1.15,2013-01-20 08:40:00,
2013-01-20 03:45:00,33.3,17.5,29.80,WNW,298,12.0,12.0,52,0.00,,,0.00,Wunderground v.1.15,2013-01-20 08:45:00,
2013-01-20 03:55:00,32.4,15.8,29.82,West,268,10.0,12.0,50,0.00,,,0.00,Wunderground v.1.15,2013-01-20 08:55:00,
2013-01-20 04:01:00,32.0,14.0,29.82,West,264,11.0,11.0,47,0.00,,,0.00,Wunderground v.1.15,2013-01-20 09:01:00,
2013-01-20 04:10:00,30.5,18.6,29.84,West,264,11.0,11.0,61,0.00,,,0.00,Wunderground v.1.15,2013-01-20 09:10:00,
2013-01-20 04:15:00,30.0,18.5,29.85,WNW,290,12.0,12.0,62,0.00,,,0.00,Wunderground v.1.15,2013-01-20 09:15:00,
2013-01-20 04:25:00,29.5,18.8,29.86,West,262,9.0,11.0,64,0.00,,,0.00,Wunderground v.1.15,2013-01-20 09:25:00,
2013-01-20 04:30:00,29.2,18.2,29.86,WNW,283,8.0,13.0,63,0.00,,,0.00,Wunderground v.1.15,2013-01-20 09:30:00,
2013-01-20 04:40:00,28.5,15.6,29.88,West,272,11.0,17.0,58,0.00,,,0.00,Wunderground v.1.15,2013-01-20 09:40:00,
2013-01-20 04:45:00,28.0,14.3,29.88,WNW,283,12.0,17.0,56,0.00,,,0.00,Wunderground v.1.15,2013-01-20 09:45:00,
2013-01-20 04:55:00,27.3,13.7,29.89,WSW,255,11.0,12.0,56,0.00,,,0.00,Wunderground v.1.15,2013-01-20 09:55:00,
2013-01-20 05:01:00,27.1,13.1,29.90,WSW,257,11.0,12.0,55,0.00,,,0.00,Wunderground v.1.15,2013-01-20 10:01:00,
2013-01-20 05:10:00,26.4,13.2,29.91,WSW,245,10.0,13.0,57,0.00,,,0.00,Wunderground v.1.15,2013-01-20 10:10:00,
2013-01-20 05:20:00,25.1,13.2,29.92,WNW,295,11.0,11.0,60,0.00,,,0.00,Wunderground v.1.15,2013-01-20 10:20:00,
2013-01-20 05:25:00,24.8,13.2,29.92,West,271,10.0,11.0,61,0.00,,,0.00,Wunderground v.1.15,2013-01-20 10:25:00,
2013-01-20 05:35:00,24.4,12.9,29.93,West,269,9.0,13.0,61,0.00,,,0.00,Wunderground v.1.15,2013-01-20 10:35:00,
2013-01-20 05:45:00,24.2,13.0,29.93,West,275,8.0,14.0,62,0.00,,,0.00,Wunderground v.1.15,2013-01-20 10:45:00,
2013-01-20 05:50:00,24.1,12.6,29.94,West,259,9.0,12.0,61,0.00,,,0.00,Wunderground v.1.15,2013-01-20 10:50:00,
2013-01-20 06:01:00,23.7,10.7,29.95,WNW,300,11.0,11.0,57,0.00,,,0.00,Wunderground v.1.15,2013-01-20 11:01:00,
2013-01-20 06:10:00,23.3,9.5,29.96,WSW,250,9.0,11.0,55,0.00,,,0.00,Wunderground v.1.15,2013-01-20 11:10:00,
2013-01-20 06:20:00,22.8,9.0,29.97,WSW,258,9.0,13.0,55,0.00,,,0.00,Wunderground v.1.15,2013-01-20 11:20:00,
2013-01-20 06:30:00,22.4,11.3,29.99,West,281,8.0,8.0,62,0.00,,,0.00,Wunderground v.1.15,2013-01-20 11:30:00,
2013-01-20 06:35:00,22.2,11.5,29.99,West,267,8.0,8.0,63,0.00,,,0.00,Wunderground v.1.15,2013-01-20 11:35:00,
2013-01-20 06:45:00,22.0,11.0,30.00,WNW,293,7.0,8.0,62,0.00,,,0.00,Wunderground v.1.15,2013-01-20 11:45:00,
2013-01-20 06:55:00,22.0,10.2,30.01,WSW,256,9.0,16.0,60,0.00,,,0.00,Wunderground v.1.15,2013-01-20 11:55:00,
2013-01-20 07:01:00,21.9,11.2,30.02,West,268,8.0,8.0,63,0.00,,,0.00,Wunderground v.1.15,2013-01-20 12:01:00,
2013-01-20 07:10:00,21.5,10.8,30.02,West,274,8.0,8.0,63,0.00,,,0.00,Wunderground v.1.15,2013-01-20 12:10:00,
2013-01-20 07:20:00,21.4,8.9,30.04,West,262,10.0,10.0,58,0.00,,,0.00,Wunderground v.1.15,2013-01-20 12:20:00,
2013-01-20 07:30:00,21.3,9.9,30.04,West,279,7.0,15.0,61,0.00,,,0.00,Wunderground v.1.15,2013-01-20 12:30:00,
2013-01-20 07:35:00,21.2,10.2,30.04,WNW,300,8.0,15.0,62,0.00,,,0.00,Wunderground v.1.15,2013-01-20 12:35:00,
2013-01-20 07:45:00,20.8,10.5,30.06,WSW,258,8.0,10.0,64,0.00,,,0.00,Wunderground v.1.15,2013-01-20 12:45:00,
2013-01-20 07:50:00,20.5,10.2,30.06,WSW,251,9.0,13.0,64,0.00,,,0.00,Wunderground v.1.15,2013-01-20 12:50:00,
2013-01-20 08:00:00,20.0,8.3,30.07,West,278,10.0,10.0,60,0.00,,,0.00,Wunderground v.1.15,2013-01-20 13:00:00,
2013-01-20 08:10:00,19.6,7.2,30.08,West,269,8.0,10.0,58,0.00,,,0.00,Wunderground v.1.15,2013-01-20 13:10:00,
2013-01-20 08:15:00,19.4,7.0,30.09,NW,313,10.0,14.0,58,0.00,,,0.00,Wunderground v.1.15,2013-01-20 13:15:00,
2013-01-20 08:25:00,19.1,7.5,30.10,NW,309,11.0,11.0,60,0.00,,,0.00,Wunderground v.1.15,2013-01-20 13:25:00,
2013-01-20 08:35:00,19.0,7.7,30.10,West,277,11.0,12.0,61,0.00,,,0.00,Wunderground v.1.15,2013-01-20 13:35:00,
2013-01-20 08:45:00,19.0,7.4,30.12,WSW,255,11.0,11.0,60,0.00,,,0.00,Wunderground v.1.15,2013-01-20 13:45:00,
2013-01-20 08:55:00,18.9,6.5,30.13,WNW,292,11.0,11.0,58,0.00,,,0.00,Wunderground v.1.15,2013-01-20 13:55:00,
2013-01-20 09:01:00,18.8,6.4,30.13,WNW,285,9.0,16.0,58,0.00,,,0.00,Wunderground v.1.15,2013-01-20 14:01:00,
2013-01-20 09:10:00,19.0,5.9,30.13,NW,321,11.0,15.0,56,0.00,,,0.00,Wunderground v.1.15,2013-01-20 14:10:00,
2013-01-20 09:20:00,19.2,7.2,30.14,WNW,293,9.0,12.0,59,0.00,,,0.00,Wunderground v.1.15,2013-01-20 14:20:00,
2013-01-20 09:25:00,18.6,7.7,30.15,WNW,298,10.0,12.0,62,0.00,,,0.00,Wunderground v.1.15,2013-01-20 14:25:00,
2013-01-20 09:35:00,18.9,6.5,30.15,West,281,9.0,9.0,58,0.00,,,0.00,Wunderground v.1.15,2013-01-20 14:35:00,
2013-01-20 09:45:00,18.6,4.3,30.16,NNW,330,11.0,18.0,53,0.00,,,0.00,Wunderground v.1.15,2013-01-20 14:45:00,
2013-01-20 09:55:00,18.8,3.2,30.17,NW,304,11.0,14.0,50,0.00,,,0.00,Wunderground v.1.15,2013-01-20 14:55:00,
2013-01-20 10:00:00,18.9,3.7,30.18,West,281,11.0,11.0,51,0.00,,,0.00,Wunderground v.1.15,2013-01-20 15:00:00,
2013-01-20 10:05:00,19.0,3.8,30.18,NW,311,11.0,11.0,51,0.00,,,0.00,Wunderground v.1.15,2013-01-20 15:05:00,
2013-01-20 10:15:00,19.3,3.7,30.18,West,278,10.0,15.0,50,0.00,,,0.00,Wunderground v.1.15,2013-01-20 15:15:00,
2013-01-20 10:25:00,19.4,4.2,30.18,West,269,10.0,10.0,51,0.00,,,0.00,Wunderground v.1.15,2013-01-20 15:25:00,
2013-01-20 10:35:00,19.9,4.7,30.19,WNW,289,8.0,10.0,51,0.00,,,0.00,Wunderground v.1.15,2013-01-20 15:35:00,
2013-01-20 10:45:00,20.2,4.9,30.19,West,259,7.0,8.0,51,0.00,,,0.00,Wunderground v.1.15,2013-01-20 15:45:00,
2013-01-20 10:50:00,20.4,5.1,30.19,West,260,7.0,10.0,51,0.00,,,0.00,Wunderground v.1.15,2013-01-20 15:50:00,
2013-01-20 11:01:00,20.4,5.5,30.20,NW,304,8.0,8.0,52,0.00,,,0.00,Wunderground v.1.15,2013-01-20 16:01:00,
2013-01-20 11:10:00,20.5,5.6,30.21,NW,320,8.0,11.0,52,0.00,,,0.00,Wunderground v.1.15,2013-01-20 16:10:00,
2013-01-20 11:15:00,20.4,5.1,30.21,WNW,302,8.0,11.0,51,0.00,,,0.00,Wunderground v.1.15,2013-01-20 16:15:00,
2013-01-20 11:25:00,21.0,6.1,30.21,WNW,297,7.0,9.0,52,0.00,,,0.00,Wunderground v.1.15,2013-01-20 16:25:00,
2013-01-20 11:35:00,20.9,6.0,30.21,NW,306,8.0,8.0,52,0.00,,,0.00,Wunderground v.1.15,2013-01-20 16:35:00,
2013-01-20 11:45:00,21.0,6.1,30.21,West,276,9.0,11.0,52,0.00,,,0.00,Wunderground v.1.15,2013-01-20 16:45:00,
2013-01-20 11:55:00,21.1,5.8,30.20,WNW,302,8.0,9.0,51,0.00,,,0.00,Wunderground v.1.15,2013-01-20 16:55:00,
2013-01-20 12:00:00,21.5,6.6,30.21,West,276,7.0,7.0,52,0.00,,,0.00,Wunderground v.1.15,2013-01-20 17:00:00,
2013-01-20 12:10:00,21.9,6.9,30.21,WSW,252,7.0,7.0,52,0.00,,,0.00,Wunderground v.1.15,2013-01-20 17:10:00,
2013-01-20 12:15:00,22.1,7.1,30.21,WNW,283,6.0,7.0,52,0.00,,,0.00,Wunderground v.1.15,2013-01-20 17:15:00,
2013-01-20 12:25:00,22.4,7.0,30.20,WNW,284,6.0,13.0,51,0.00,,,0.00,Wunderground v.1.15,2013-01-20 17:25:00,
2013-01-20 12:35:00,23.0,7.5,30.21,WNW,285,6.0,9.0,51,0.00,,,0.00,Wunderground v.1.15,2013-01-20 17:35:00,
2013-01-20 12:45:00,23.0,7.1,30.20,NW,311,6.0,7.0,50,0.00,,,0.00,Wunderground v.1.15,2013-01-20 17:45:00,
2013-01-20 12:55:00,23.2,7.3,30.20,WSW,245,6.0,6.0,50,0.00,,,0.00,Wunderground v.1.15,2013-01-20 17:55:00,
2013-01-20 13:01:00,23.3,6.9,30.20,WNW,301,6.0,9.0,49,0.00,,,0.00,Wunderground v.1.15,2013-01-20 18:01:00,
2013-01-20 13:10:00,23.7,7.7,30.20,WSW,257,6.0,6.0,50,0.00,,,0.00,Wunderground v.1.15,2013-01-20 18:10:00,
2013-01-20 13:15:00,23.6,7.7,30.19,WNW,299,5.0,6.0,50,0.00,,,0.00,Wunderground v.1.15,2013-01-20 18:15:00,
2013-01-20 13:25:00,23.6,7.7,30.18,WSW,240,5.0,12.0,50,0.00,,,0.00,Wunderground v.1.15,2013-01-20 18:25:00,
2013-01-20 13:30:00,23.4,7.5,30.18,SW,215,6.0,6.0,50,0.00,,,0.00,Wunderground v.1.15,2013-01-20 18:30:00,
2013-01-20 13:40:00,23.4,7.9,30.18,WSW,245,5.0,5.0,51,0.00,,,0.00,Wunderground v.1.15,2013-01-20 18:40:00,
2013-01-20 13:45:00,23.8,8.3,30.17,WNW,287,5.0,5.0,51,0.00,,,0.00,Wunderground v.1.15,2013-01-20 18:45:00,
2013-01-20 13:55:00,24.2,9.5,30.17,NE,39,4.0,5.0,53,0.00,,,0.00,Wunderground v.1.15,2013-01-20 18:55:00,
2013-01-20 14:00:00,24.7,9.5,30.17,West,274,4.0,4.0,52,0.00,,,0.00,Wunderground v.1.15,2013-01-20 19:00:00,
2013-01-20 14:05:00,24.7,9.1,30.18,West,261,5.0,7.0,51,0.00,,,0.00,Wunderground v.1.15,2013-01-20 19:05:00,
2013-01-20 14:15:00,24.2,9.1,30.20,West,269,6.0,7.0,52,0.00,,,0.00,Wunderground v.1.15,2013-01-20 19:15:00,
2013-01-20 14:25:00,23.6,8.9,30.19,WNW,289,6.0,9.0,53,0.00,,,0.00,Wunderground v.1.15,2013-01-20 19:25:00,
2013-01-20 14:35:00,23.1,9.7,30.20,West,269,6.0,6.0,56,0.00,,,0.00,Wunderground v.1.15,2013-01-20 19:35:00,
2013-01-20 14:45:00,23.1,9.7,30.20,West,272,6.0,6.0,56,0.00,,,0.00,Wunderground v.1.15,2013-01-20 19:45:00,
2013-01-20 14:55:00,23.1,10.1,30.20,WSW,258,6.0,6.0,57,0.00,,,0.00,Wunderground v.1.15,2013-01-20 19:55:00,
2013-01-20 15:00:00,23.2,9.8,30.20,WSW,239,6.0,8.0,56,0.00,,,0.00,Wunderground v.1.15,2013-01-20 20:00:00,
2013-01-20 15:05:00,23.0,9.6,30.20,WSW,255,6.0,8.0,56,0.00,,,0.00,Wunderground v.1.15,2013-01-20 20:05:00,
2013-01-20 15:15:00,22.7,8.9,30.20,WSW,257,7.0,10.0,55,0.00,,,0.00,Wunderground v.1.15,2013-01-20 20:15:00,
2013-01-20 15:26:00,22.9,9.1,30.20,West,263,4.0,6.0,55,0.00,,,0.00,Wunderground v.1.15,2013-01-20 20:26:00,
2013-01-20 15:35:00,22.7,9.3,30.21,WNW,299,5.0,9.0,56,0.00,,,0.00,Wunderground v.1.15,2013-01-20 20:35:00,
2013-01-20 15:45:00,22.6,9.2,30.21,WSW,251,5.0,5.0,56,0.00,,,0.00,Wunderground v.1.15,2013-01-20 20:45:00,
2013-01-20 15:50:00,22.5,9.1,30.21,West,265,5.0,5.0,56,0.00,,,0.00,Wunderground v.1.15,2013-01-20 20:50:00,
2013-01-20 16:01:00,22.6,9.2,30.21,SW,233,5.0,9.0,56,0.00,,,0.00,Wunderground v.1.15,2013-01-20 21:01:00,
2013-01-20 16:10:00,22.9,9.1,30.21,West,269,5.0,5.0,55,0.00,,,0.00,Wunderground v.1.15,2013-01-20 21:10:00,
2013-01-20 16:15:00,22.8,9.4,30.21,WNW,288,4.0,7.0,56,0.00,,,0.00,Wunderground v.1.15,2013-01-20 21:15:00,
2013-01-20 16:25:00,22.1,9.2,30.22,SW,229,5.0,5.0,57,0.00,,,0.00,Wunderground v.1.15,2013-01-20 21:25:00,
2013-01-20 16:35:00,21.9,9.4,30.22,West,260,5.0,5.0,58,0.00,,,0.00,Wunderground v.1.15,2013-01-20 21:35:00,
2013-01-20 16:46:00,21.8,9.3,30.21,WNW,290,4.0,4.0,58,0.00,,,0.00,Wunderground v.1.15,2013-01-20 21:46:00,
2013-01-20 16:55:00,21.6,8.3,30.22,WNW,294,5.0,5.0,56,0.00,,,0.00,Wunderground v.1.15,2013-01-20 21:55:00,
2013-01-20 17:01:00,21.5,8.6,30.23,WNW,283,6.0,6.0,57,0.00,,,0.00,Wunderground v.1.15,2013-01-20 22:01:00,
2013-01-20 17:11:00,21.4,8.5,30.23,WSW,253,5.0,5.0,57,0.00,,,0.00,Wunderground v.1.15,2013-01-20 22:11:00,
2013-01-20 17:20:00,21.3,8.4,30.23,WNW,301,5.0,7.0,57,0.00,,,0.00,Wunderground v.1.15,2013-01-20 22:20:00,
2013-01-20 17:31:00,21.1,8.6,30.23,WSW,244,5.0,6.0,58,0.00,,,0.00,Wunderground v.1.15,2013-01-20 22:31:00,
2013-01-20 17:41:00,21.0,8.5,30.24,WNW,285,5.0,5.0,58,0.00,,,0.00,Wunderground v.1.15,2013-01-20 22:41:00,
2013-01-20 17:50:00,20.9,8.8,30.24,West,280,4.0,5.0,59,0.00,,,0.00,Wunderground v.1.15,2013-01-20 22:50:00,
2013-01-20 18:01:00,20.8,8.7,30.24,WNW,288,4.0,6.0,59,0.00,,,0.00,Wunderground v.1.15,2013-01-20 23:01:00,
2013-01-20 18:10:00,20.6,8.9,30.24,WNW,288,4.0,6.0,60,0.00,,,0.00,Wunderground v.1.15,2013-01-20 23:10:00,
2013-01-20 18:21:00,20.5,8.8,30.24,West,269,4.0,5.0,60,0.00,,,0.00,Wunderground v.1.15,2013-01-20 23:21:00,
2013-01-20 18:30:00,20.4,8.0,30.24,WNW,297,4.0,4.0,58,0.00,,,0.00,Wunderground v.1.15,2013-01-20 23:30:00,
2013-01-20 18:40:00,20.3,7.9,30.24,WNW,286,4.0,4.0,58,0.00,,,0.00,Wunderground v.1.15,2013-01-20 23:40:00,
2013-01-20 18:50:00,20.2,8.1,30.24,West,270,3.0,5.0,59,0.00,,,0.00,Wunderground v.1.15,2013-01-20 23:50:00,
2013-01-20 19:01:00,20.0,8.0,30.24,West,281,4.0,6.0,59,0.00,,,0.00,Wunderground v.1.15,2013-01-21 00:01:00,
2013-01-20 19:10:00,20.0,8.3,30.24,West,264,4.0,4.0,60,0.00,,,0.00,Wunderground v.1.15,2013-01-21 00:10:00,
2013-01-20 19:20:00,20.0,8.3,30.24,West,268,3.0,6.0,60,0.00,,,0.00,Wunderground v.1.15,2013-01-21 00:20:00,
2013-01-20 19:30:00,19.9,8.6,30.25,West,273,3.0,4.0,61,0.00,,,0.00,Wunderground v.1.15,2013-01-21 00:30:00,
2013-01-20 19:40:00,19.9,7.9,30.25,West,266,2.0,6.0,59,0.00,,,0.00,Wunderground v.1.15,2013-01-21 00:40:00,
2013-01-20 19:46:00,19.8,8.1,30.25,WNW,287,3.0,6.0,60,0.00,,,0.00,Wunderground v.1.15,2013-01-21 00:46:00,
2013-01-20 19:55:00,19.7,8.4,30.25,NW,308,3.0,4.0,61,0.00,,,0.00,Wunderground v.1.15,2013-01-21 00:55:00,
2013-01-20 20:01:00,19.8,8.1,30.25,West,262,3.0,3.0,60,0.00,,,0.00,Wunderground v.1.15,2013-01-21 01:01:00,
2013-01-20 20:11:00,19.8,7.8,30.25,West,265,4.0,4.0,59,0.00,,,0.00,Wunderground v.1.15,2013-01-21 01:11:00,
2013-01-20 20:20:00,19.7,8.0,30.25,WNW,292,4.0,4.0,60,0.00,,,0.00,Wunderground v.1.15,2013-01-21 01:20:00,
2013-01-20 20:25:00,19.7,8.0,30.24,WSW,248,3.0,4.0,60,0.00,,,0.00,Wunderground v.1.15,2013-01-21 01:25:00,
2013-01-20 20:36:00,19.4,7.8,30.24,WNW,283,4.0,5.0,60,0.00,,,0.00,Wunderground v.1.15,2013-01-21 01:36:00,
2013-01-20 20:45:00,19.4,8.1,30.24,WNW,300,3.0,4.0,61,0.00,,,0.00,Wunderground v.1.15,2013-01-21 01:45:00,
2013-01-20 20:55:00,19.3,8.4,30.24,WNW,295,4.0,6.0,62,0.00,,,0.00,Wunderground v.1.15,2013-01-21 01:55:00,
2013-01-20 21:01:00,19.2,8.3,30.24,NW,304,4.0,4.0,62,0.00,,,0.00,Wunderground v.1.15,2013-01-21 02:01:00,
2013-01-20 21:10:00,19.3,6.9,30.24,WSW,245,4.0,7.0,58,0.00,,,0.00,Wunderground v.1.15,2013-01-21 02:10:00,
2013-01-20 21:20:00,19.3,6.9,30.24,West,260,4.0,4.0,58,0.00,,,0.00,Wunderground v.1.15,2013-01-21 02:20:00,
2013-01-20 21:26:00,19.3,6.9,30.24,West,275,5.0,7.0,58,0.00,,,0.00,Wunderground v.1.15,2013-01-21 02:26:00,
2013-01-20 21:35:00,19.3,7.3,30.24,SW,233,5.0,6.0,59,0.00,,,0.00,Wunderground v.1.15,2013-01-21 02:35:00,
2013-01-20 21:45:00,19.3,7.3,30.25,SW,220,4.0,5.0,59,0.00,,,0.00,Wunderground v.1.15,2013-01-21 02:45:00,
2013-01-20 21:56:00,19.1,6.3,30.25,NW,306,4.0,6.0,57,0.00,,,0.00,Wunderground v.1.15,2013-01-21 02:56:00,
2013-01-20 22:01:00,19.0,6.6,30.24,WSW,248,5.0,7.0,58,0.00,,,0.00,Wunderground v.1.15,2013-01-21 03:01:00,
2013-01-20 22:10:00,19.0,7.0,30.24,West,274,4.0,4.0,59,0.00,,,0.00,Wunderground v.1.15,2013-01-21 03:10:00,
2013-01-20 22:21:00,19.0,7.7,30.24,NW,306,4.0,4.0,61,0.00,,,0.00,Wunderground v.1.15,2013-01-21 03:21:00,
2013-01-20 22:30:00,18.9,7.3,30.24,SW,229,3.0,5.0,60,0.00,,,0.00,Wunderground v.1.15,2013-01-21 03:30:00,
2013-01-20 22:36:00,18.9,6.9,30.24,West,264,3.0,5.0,59,0.00,,,0.00,Wunderground v.1.15,2013-01-21 03:36:00,
2013-01-20 22:45:00,18.9,7.7,30.24,NW,308,3.0,6.0,61,0.00,,,0.00,Wunderground v.1.15,2013-01-21 03:45:00,
2013-01-20 22:55:00,18.8,7.6,30.24,NW,306,4.0,4.0,61,0.00,,,0.00,Wunderground v.1.15,2013-01-21 03:55:00,
2013-01-20 23:01:00,18.9,7.7,30.23,West,259,3.0,3.0,61,0.00,,,0.00,Wunderground v.1.15,2013-01-21 04:01:00,
2013-01-20 23:10:00,18.8,7.6,30.23,West,267,4.0,4.0,61,0.00,,,0.00,Wunderground v.1.15,2013-01-21 04:10:00,
2013-01-20 23:16:00,18.8,7.9,30.23,WNW,302,4.0,4.0,62,0.00,,,0.00,Wunderground v.1.15,2013-01-21 04:16:00,
2013-01-20 23:25:00,18.6,7.7,30.23,NW,306,4.0,5.0,62,0.00,,,0.00,Wunderground v.1.15,2013-01-21 04:25:00,
2013-01-20 23:36:00,18.5,7.3,30.22,WNW,295,4.0,4.0,61,0.00,,,0.00,Wunderground v.1.15,2013-01-21 04:36:00,
2013-01-20 23:45:00,18.4,7.5,30.22,West,260,3.0,3.0,62,0.00,,,0.00,Wunderground v.1.15,2013-01-21 04:45:00,
2013-01-20 23:56:00,18.3,7.4,30.22,NW,326,3.0,4.0,62,0.00,,,0.00,Wunderground v.1.15,2013-01-21 04:56:00,